Flag for U.S.A. Weather past 2 weeks in Scranton, Pennsylvania, U.S.A.

Now
52 °F

Overcast.


Feels Like: 47 °F
Forecast: 49 / 56 °F
Wind: 14 mph from North

Location: Barre - Scranton - Wilkes-Barre / Scranton International Airport

Current Time: Oct 22, 2014 at 6:02:25 PM

Latest Report: Oct 22, 2014 at 4:54 PM


Visibility: 10 mi

Pressure: 29.96 "Hg

Humidity: 80%

Dew point: 46 °F

Location of ScrantonLocation

Historic Weather in Scranton — Graph

°F

Scranton temperature yesterday

Maximum temperature yesterday: 60 °F (at 3:54 PM)
Minimum temperature yesterday: 51 °F (at 5:54 AM)
Average temperature yesterday: 55 °F

Past Weeks' High & Low Weather Summary

 TemperatureHumidityPressure
High76 °F (Oct 14, 2:54 PM)94% (Oct 15, 4:01 PM)30.31 "Hg (Oct 15, 4:01 PM)
Low33 °F (Oct 20, 12:54 AM)33% (Oct 9, 12:54 PM)29.55 "Hg (Oct 18, 5:54 AM)
Average57 °F68%29.95 "Hg
* Reported Oct 7 3:54 PM — Oct 22 3:54 PM, Scranton, Weather by CustomWeather, © 2014

Note: Actual official high and low records may vary slightly from our data, if they occured in-between our weather recording intervals... More about our weather records

Advertising

Scranton weather history for previous 24 hours

 ConditionsComfort  
Time TempWeatherWind HumidityBarometerVisibility
3:54 PM
Oct 22
53 °FOvercast.17 mph77%29.96 "Hg10 mi
2:54 PM53 °FLight rain. Overcast.13 mph77%29.97 "Hg10 mi
1:54 PM54 °FOvercast.13 mph74%29.98 "Hg10 mi
12:54 PM54 °FOvercast.10 mph74%29.99 "Hg10 mi
11:54 AM53 °FOvercast.12 mph77%30.01 "Hg10 mi
10:54 AM53 °FOvercast.12 mph80%30.01 "Hg10 mi
9:54 AM53 °FOvercast.10 mph80%30.00 "Hg10 mi
8:54 AM52 °FOvercast.9 mph83%29.99 "Hg10 mi
7:54 AM51 °FOvercast.6 mph89%29.98 "Hg10 mi
6:54 AM51 °FLight rain. Overcast.6 mph89%29.96 "Hg10 mi
5:54 AM51 °FMostly cloudy.6 mph89%29.94 "Hg10 mi
5:04 AM52 °FMostly cloudy.No wind86%29.94 "Hg10 mi
4:54 AM51 °FOvercast.No wind92%29.93 "Hg10 mi
3:54 AM52 °FFog.No wind93%29.93 "Hg6 mi
2:54 AM52 °FLight rain. Overcast.3 mph93%29.93 "Hg9 mi
1:54 AM52 °FOvercast.3 mph89%29.92 "Hg7 mi
12:54 AM52 °FFog.No wind89%29.93 "Hg6 mi
11:54 PM
Oct 21
51 °FFog.No wind89%29.94 "Hg4 mi
10:59 PM51 °FFog.No wind89%29.95 "Hg4 mi
9:54 PM52 °FFog.5 mph89%29.92 "Hg6 mi
8:54 PM53 °FMostly cloudy.3 mph89%29.91 "Hg7 mi
7:54 PM54 °FLight rain. Overcast.No wind86%29.89 "Hg10 mi
6:54 PM54 °FLight rain. Mostly cloudy.7 mph83%29.88 "Hg7 mi
Weather by CustomWeather, © 2014

See weather overviewHow to use our weather pages